Location: Gisborne
(38.6530°S, 178.0040°E)
Time: 16:14:52
(UTC+13:00)

ISS - Pass Details

Date: 26 January 2019
Orbit: 403 x 411 km, 51.6° (Epoch: 17 February)

Event Time Altitude Azimuth Distance (km) Brightness Sun altitude
Exits shadow 05:36:01 - 346° (NNW) 2,178 -0.5 -7.0°
Reaches altitude 10° 05:38:04 10° 2° (N) 1,478 -1.3 -6.7°
Maximum altitude 05:40:29 19° 49° (NE) 1,062 -1.5 -6.3°
Drops below altitude 10° 05:42:55 10° 96° (E) 1,489 0.3 -5.9°
Sets 05:45:25 0° 115° (ESE) 2,357 2.8 -5.4°
